Plymouth, NH

2:50 PM EDT on October 21, 2017 (GMT -0400)
Plymouth

Weather History for K1P1 - November, 2012

Change the Weather History Date:

Thursday, November 29, 2012

  Actual Average (KLCI) Record (KLCI)
Temperature  
Mean Temperature 30 °F -  
Max Temperature 39 °F 45 °F 65 °F (1990)
Min Temperature 22 °F 27 °F 10 °F (2013)
Degree Days  
Heating Degree Days 34    
Moisture  
Dew Point 21 °F    
Average Humidity 65    
Maximum Humidity 95    
Minimum Humidity 45    
Precipitation  
Precipitation 0.00 in - - ()
Sea Level Pressure  
Sea Level Pressure 30.12 in    
Wind  
Wind Speed 5 mph (West)    
Max Wind Speed 17 mph    
Max Gust Speed 24 mph    
Visibility 10 miles    
Events Rain , Snow    
Averages and records for this station are not official NWS values.
T = Trace of Precipitation, MM = Missing Value Source: NWS Daily Summary

Daily Weather History Graph

Daily Weather History Graph

Search for Another Location

Airport or City:

Trip Planner

Search our weather history database for the weather conditions in past years. The results will help you decide how hot, cold, wet, or windy it might be!

Date:

Astronomy

Nov. 29, 2012 Rise Set
Actual Time 6:59 AM EST 4:11 PM EST
Civil Twilight 6:27 AM EST 4:43 PM EST
Nautical Twilight 5:51 AM EST 5:19 PM EST
Astronomical Twilight 5:16 AM EST 5:53 PM EST
Moon 5:11 PM EST (11/29) 7:43 AM EST (11/29)
Length of Visible Light 10h 16m
Length of Day
9h 12m
Full, 99% of the Moon is Illuminated
Nov 29
Full
Dec 6
Last Quarter
Dec 13
New
Dec 20
First Quarter
Dec 28
Full

Hourly Weather History & Observations

Time (EST) Temp. Windchill Dew Point Humidity Pressure Visibility Wind Dir Wind Speed Gust Speed Precip Events Conditions
12:15 AM 24.3 °F - 21.7 °F 90% 30.08 in 10.0 mi Calm Calm - N/A   Mostly Cloudy
12:35 AM 23.5 °F 19.1 °F 21.9 °F 94% 30.08 in 10.0 mi East 3.5 mph - N/A   Mostly Cloudy
12:55 AM 22.6 °F - 21.0 °F 93% 30.08 in 10.0 mi Calm Calm - N/A   Scattered Clouds
1:15 AM 23.0 °F 18.4 °F 21.7 °F 95% 30.08 in 10.0 mi East 3.5 mph - N/A   Mostly Cloudy
1:35 AM 23.7 °F - 22.3 °F 94% 30.09 in 10.0 mi Calm Calm - N/A   Overcast
2:15 AM 29.8 °F 23.0 °F 26.4 °F 87% 30.10 in 10.0 mi WNW 6.9 mph - N/A   Scattered Clouds
2:35 AM 29.5 °F 23.4 °F 25.5 °F 85% 30.11 in 10.0 mi NW 5.8 mph - N/A   Clear
2:55 AM 29.3 °F 23.2 °F 25.2 °F 85% 30.11 in 10.0 mi WNW 5.8 mph - N/A   Clear
3:15 AM 30.2 °F 24.3 °F 25.2 °F 82% 30.11 in 10.0 mi WNW 5.8 mph - N/A   Scattered Clouds
3:35 AM 30.9 °F 26.2 °F 24.3 °F 76% 30.12 in 10.0 mi West 4.6 mph - N/A   Mostly Cloudy
3:55 AM 30.2 °F - 23.0 °F 75% 30.12 in 10.0 mi Calm Calm - N/A   Mostly Cloudy
4:15 AM 26.6 °F - 21.2 °F 80% 30.13 in 10.0 mi Calm Calm - N/A   Scattered Clouds
4:35 AM 27.9 °F 24.0 °F 22.1 °F 79% 30.13 in 10.0 mi NW 3.5 mph - N/A   Clear
4:55 AM 29.3 °F 23.2 °F 21.0 °F 71% 30.14 in 10.0 mi WNW 5.8 mph - N/A   Clear
5:15 AM 29.8 °F 24.9 °F 20.8 °F 69% 30.14 in 10.0 mi NW 4.6 mph - N/A   Scattered Clouds
5:35 AM 29.5 °F 20.4 °F 19.2 °F 66% 30.14 in 10.0 mi NW 10.4 mph - N/A   Scattered Clouds
5:55 AM 29.3 °F 25.6 °F 17.1 °F 60% 30.15 in 10.0 mi NNW 3.5 mph - N/A   Clear
6:15 AM 28.4 °F 23.3 °F 15.8 °F 59% 30.15 in 10.0 mi NW 4.6 mph - N/A   Clear
6:35 AM 28.0 °F - 15.1 °F 58% 30.16 in 10.0 mi Calm Calm - N/A   Clear
6:55 AM 28.0 °F - 14.7 °F 57% 30.16 in 10.0 mi Calm Calm - N/A   Clear
7:15 AM 28.4 °F - 14.2 °F 55% 30.17 in 10.0 mi Calm Calm - N/A   Clear
7:35 AM 27.9 °F - 14.5 °F 57% 30.18 in 10.0 mi Calm Calm - N/A   Clear
7:55 AM 28.4 °F 21.2 °F 14.9 °F 57% 30.18 in 10.0 mi West 6.9 mph - N/A   Clear
8:15 AM 28.9 °F 21.9 °F 14.9 °F 56% 30.18 in 10.0 mi West 6.9 mph - N/A   Clear
8:35 AM 29.3 °F 24.3 °F 15.6 °F 57% 30.19 in 10.0 mi WNW 4.6 mph - N/A   Scattered Clouds
8:55 AM 30.0 °F 25.2 °F 15.8 °F 56% 30.18 in 10.0 mi WSW 4.6 mph - N/A   Scattered Clouds
9:15 AM 31.1 °F 26.4 °F 16.2 °F 54% 30.19 in 10.0 mi West 4.6 mph - N/A   Clear
9:35 AM 31.8 °F 27.3 °F 16.5 °F 53% 30.19 in 10.0 mi NW 4.6 mph - N/A   Clear
9:55 AM 32.0 °F - 15.8 °F 51% 30.18 in 10.0 mi Calm Calm - N/A   Clear
10:15 AM 33.4 °F - 16.7 °F 50% 30.18 in 10.0 mi Calm Calm - N/A   Clear
10:35 AM 32.9 °F 27.5 °F 16.3 °F 51% 30.18 in 10.0 mi WSW 5.8 mph - N/A   Scattered Clouds
10:55 AM 34.7 °F 28.8 °F 18.0 °F 51% 30.16 in 10.0 mi SW 6.9 mph - N/A   Mostly Cloudy
11:15 AM 35.8 °F 30.9 °F 18.3 °F 49% 30.14 in 10.0 mi WSW 5.8 mph - N/A   Mostly Cloudy
11:35 AM 36.3 °F 31.6 °F 18.5 °F 48% 30.13 in 10.0 mi SW 5.8 mph 16.1 mph N/A   Mostly Cloudy
11:55 AM 35.6 °F 28.0 °F 18.7 °F 50% 30.12 in 10.0 mi West 10.4 mph 17.3 mph N/A   Mostly Cloudy
12:15 PM 36.9 °F 31.4 °F 19.4 °F 49% 30.11 in 10.0 mi West 6.9 mph - N/A   Overcast
12:35 PM 37.0 °F 29.8 °F 19.6 °F 49% 30.10 in 10.0 mi West 10.4 mph 17.3 mph N/A   Overcast
12:55 PM 37.4 °F 30.3 °F 20.1 °F 50% 30.09 in 10.0 mi West 10.4 mph 16.1 mph N/A   Overcast
1:15 PM 37.4 °F 32.1 °F 20.3 °F 50% 30.09 in 10.0 mi West 6.9 mph 18.4 mph N/A   Overcast
1:35 PM 38.1 °F 30.2 °F 21.2 °F 51% 30.07 in 10.0 mi West 12.7 mph 21.9 mph N/A   Scattered Clouds
1:55 PM 38.7 °F 32.4 °F 21.6 °F 50% 30.05 in 10.0 mi WSW 9.2 mph 20.7 mph N/A   Clear
2:15 PM 38.5 °F 31.6 °F 21.2 °F 50% 30.05 in 10.0 mi West 10.4 mph 21.9 mph N/A   Scattered Clouds
2:35 PM 38.5 °F 32.1 °F 20.7 °F 49% 30.04 in 10.0 mi West 9.2 mph 19.6 mph N/A   Mostly Cloudy
2:55 PM 39.0 °F 33.4 °F 19.9 °F 46% 30.04 in 10.0 mi WSW 8.1 mph 24.2 mph N/A   Overcast
3:15 PM 39.4 °F 33.8 °F 19.9 °F 46% 30.05 in 10.0 mi SW 8.1 mph 17.3 mph N/A   Mostly Cloudy
3:35 PM 38.3 °F 31.9 °F 20.3 °F 48% 30.05 in 10.0 mi WSW 9.2 mph 17.3 mph N/A   Mostly Cloudy
3:55 PM 37.8 °F 30.2 °F 20.1 °F 49% 30.04 in 10.0 mi WSW 11.5 mph - N/A   Scattered Clouds
4:15 PM 37.8 °F 30.7 °F 19.4 °F 48% 30.04 in 10.0 mi West 10.4 mph - N/A   Clear
4:35 PM 37.8 °F 31.3 °F 19.2 °F 47% 30.04 in 10.0 mi WSW 9.2 mph - N/A   Clear
4:55 PM 38.3 °F 31.9 °F 18.5 °F 45% 30.04 in 10.0 mi WSW 9.2 mph 20.7 mph N/A   Mostly Cloudy
5:15 PM 38.7 °F 34.3 °F 19.2 °F 46% 30.03 in 10.0 mi West 5.8 mph 18.4 mph N/A   Mostly Cloudy
5:35 PM 37.9 °F 32.1 °F 20.1 °F 49% 30.04 in 10.0 mi West 8.1 mph 16.1 mph N/A   Overcast
6:15 PM 38.3 °F 32.5 °F 23.4 °F 55% 30.05 in 10.0 mi WNW 8.1 mph 19.6 mph N/A   Overcast
6:35 PM 37.8 °F 32.5 °F 25.7 °F 62% 30.05 in 10.0 mi West 6.9 mph - N/A   Overcast
6:55 PM 37.4 °F 32.1 °F 26.6 °F 65% 30.06 in 10.0 mi West 6.9 mph - N/A   Overcast
7:15 PM 37.0 °F 31.6 °F 28.6 °F 71% 30.05 in 10.0 mi West 6.9 mph - N/A Snow Light Snow
7:35 PM 36.3 °F 29.5 °F 30.4 °F 79% 30.06 in 10.0 mi West 9.2 mph - N/A Rain Light Rain
7:55 PM 35.2 °F 29.5 °F 31.6 °F 87% 30.07 in 7.0 mi West 6.9 mph - N/A Rain Light Rain
8:15 PM 34.7 °F 30.6 °F 32.0 °F 90% 30.07 in 5.0 mi WNW 4.6 mph - N/A Snow Light Snow
8:35 PM 33.3 °F 22.5 °F 31.3 °F 92% 30.10 in 3.0 mi WNW 17.3 mph 24.2 mph N/A Snow Light Snow
8:55 PM 32.0 °F 22.1 °F 26.1 °F 79% 30.12 in 10.0 mi West 13.8 mph 20.7 mph N/A Snow Light Snow
9:15 PM 31.1 °F 21.4 °F 25.0 °F 78% 30.14 in 5.0 mi WNW 12.7 mph 18.4 mph N/A Snow Light Snow
9:35 PM 30.2 °F 20.8 °F 24.3 °F 79% 30.16 in 7.0 mi WNW 11.5 mph - N/A Snow Light Snow
9:55 PM 30.0 °F 25.2 °F 25.0 °F 82% 30.16 in 5.0 mi WNW 4.6 mph - N/A Snow Light Snow
10:15 PM 29.7 °F 22.0 °F 24.8 °F 82% 30.16 in 4.0 mi WNW 8.1 mph 16.1 mph N/A Snow Light Snow
10:35 PM 29.3 °F 21.5 °F 24.1 °F 81% 30.18 in 7.0 mi West 8.1 mph - N/A Snow Light Snow
11:15 PM 29.3 °F 20.8 °F 22.3 °F 75% 30.20 in 10.0 mi WNW 9.2 mph 17.3 mph N/A Snow Light Snow
11:35 PM 29.1 °F 20.6 °F 21.7 °F 74% 30.21 in 10.0 mi NW 9.2 mph - N/A Snow Light Snow
11:55 PM 28.2 °F 20.2 °F 20.8 °F 74% 30.21 in 10.0 mi WNW 8.1 mph 18.4 mph N/A Snow Light Snow